Location: Casteau
(50.5142°N, 4.0161°E)
Time: 06:00:11
(UTC+00:00)

Vanguard 1 Rocket - Pass Details

Date: 30 July 2021
Orbit: 650 x 4226 km, 34.3° (Epoch: 21 September)

Event Time Altitude Azimuth Distance (km) Brightness Sun altitude
Rises 09:11:13 0° 215° (SW) 8,024 12.2 45.0°
Reaches altitude 10° 09:18:42 10° 205° (SSW) 6,507 11.9 46.0°
Maximum altitude 09:32:14 25° 161° (SSE) 4,107 11.8 47.8°
Drops below altitude 10° 09:41:04 10° 112° (ESE) 4,140 11.6 48.9°
Sets 09:44:26 0° 99° (E) 4,689 11.6 49.3°
